Oceana Nas, Apollo Soucek Field, Station Virginia Beach US
ICAO: KNTU
IATA: NTU
Category: Medium
Scheduled Services: No

Elevation: 23 ft
TransAlt. 18000 ft.

Airport Communications:
Oceana Approach Control:123.9
ATIS:31.76
CLNC DEL:25.44
Oceana Departure Control:119.6
GND:33.64
ATCOM:672.3
BASE OPS:28.49
PMSV METRO:38.74
TWR:127.075

KNTU Zoom In..

Runways:

(A) RW 05L length 8001 ft width 150 ft
---- / hdg 52

(B) RW 05R length 12000 ft width 200 ft
---- / hdg 52

(C) RW 14L length 8001 ft width 150 ft
---- / hdg 144

(D) RW 14R length 8000 ft width 200 ft
---- / hdg 144

(E) RW 23L length 12000 ft width 200 ft
---- / hdg 232

(F) RW 23R length 8001 ft width 150 ft
---- / hdg 232

(G) RW 32L length 8000 ft width 200 ft
---- / hdg 324

(H) RW 32R length 8001 ft width 150 ft
---- / hdg 324

Location; KNTU
Day. 09 / Time. 22.56 Zulu
* Altimeter: 29.85
* Temperature: 27° c. 80.6°f.
* Wind from: 060° Speed 10 kn.
Dewpoint: 23° c.
Visibility: 10 Statute Miles.
Clouds: Broken 1300 ft.
Clouds: Broken 1800 ft.
Clouds: Broken 2000 ft.

KNTU 092256Z 06010KT 10SM BKN013 BKN018 BKN200 27/23 A2985 RMK AO2 SLP112 T2 SET T02720233 VISNO RWY 5R $

Going to: --> -->


Wind From 060°
Speed 10 kn.

 
 
jpsmedia worldairports.se 2020   terms of use